Sct Santiago — V7NF7 — position and weather

sailwx.info

Track history (hours):
 
Tides and Currents Weather Stations Pressure Air Temp Water Temp Dewpoint Dewpoint Depression Visibility Wind Speed Wind Dir Waves Ship Positions

Sct Santiago

Last reported at 2016-May-08 21:05 UTC. Time now 2016-May-24 17:40 UTC.
Position N 29°49' E 122°39'.
Warning: this ship's position is 15 days out of date.

; draft 10.5 m.

Type: Cargo ship. MMSI: 538002953.

Date/timePositionNaut miles runAvg speedWind from/ knotsBaromVisibWave heightAir tempDewpointWater temp
2016-May-08 21:05N 29°49' E 122°39'1017.7
2016-May-08 20:32N 29°42' E 122°31'1313.1
2016-May-08 19:33N 29°46' E 122°17'9 8.8
2016-May-08 18:32N 29°49' E 122°07'7 0.7
2016-May-08 08:26N 29°46' E 122°00'0 0.2
2016-May-08 07:32N 29°46' E 122°00'4 4.0
2016-May-08 06:33N 29°48' E 122°05'9 9.4
2016-May-08 05:33N 29°48' E 122°15'10 9.4
2016-May-08 04:33N 29°42' E 122°24'2 0.4
2016-May-07 23:33N 29°41' E 122°26'6 6.0
2016-May-07 22:29N 29°46' E 122°31'56 2.6
2016-May-07 01:09N 30°36' E 122°04'711.7
2016-May-07 00:32N 30°34' E 122°12'1312.6
2016-May-06 23:31N 30°32' E 122°27'6 0.6
2016-May-06 14:12N 30°29' E 122°33'5 7.5
2016-May-06 13:29N 30°29' E 122°39'67316.4
2016-May-04 20:25N 22°17' E 114°06'18 0.9
2016-May-03 23:31N 22°29' E 113°52'0 0.0
2016-May-03 22:33N 22°29' E 113°52'0 0.0
2016-May-03 21:29N 22°29' E 113°52'0 0.0
2016-May-03 20:16N 22°29' E 113°52'0 0.0
2016-May-03 19:28N 22°29' E 113°52'0 0.0
2016-May-03 16:10N 22°29' E 113°52'0 0.0
2016-May-03 15:32N 22°29' E 113°52'15 6.2
2016-May-03 13:07N 22°20' E 114°05'3 5.1
2016-May-03 12:34N 22°20' E 114°08'0 0.0
2016-May-03 11:31N 22°20' E 114°08'0 0.0
2016-May-03 10:31N 22°20' E 114°08'0 0.0
2016-May-03 09:31N 22°20' E 114°08'0 0.0
2016-May-03 08:31N 22°20' E 114°08'0 0.0
2016-May-03 07:31N 22°20' E 114°08'0 0.0
2016-May-03 06:25N 22°20' E 114°08'0 0.0
2016-May-03 05:31N 22°20' E 114°08'0 0.0
2016-May-03 04:31N 22°20' E 114°08'0 0.0
2016-May-03 03:31N 22°20' E 114°08'0 0.0
2016-May-03 02:33N 22°20' E 114°08'7 6.9
2016-May-03 01:32N 22°13' E 114°10'10 0.2
2016-May-01 04:33N 22°09' E 114°20'  
Track history (hours):
 
Tides and Currents Weather Stations Pressure Air Temp Water Temp Dewpoint Dewpoint Depression Visibility Wind Speed Wind Dir Waves Ship Positions

Sct Santiago

Last reported at 2016-May-08 21:05 UTC. Time now 2016-May-24 17:40 UTC.
Position N 29°49' E 122°39'.
Warning: this ship's position is 15 days out of date.

; draft 10.5 m.

Type: Cargo ship. MMSI: 538002953.

Date/timePositionNaut miles runAvg speedWind from/ knotsBaromVisibWave heightAir tempDewpointWater temp
2016-May-08 21:05N 29°49' E 122°39'1017.7
2016-May-08 20:32N 29°42' E 122°31'1313.1
2016-May-08 19:33N 29°46' E 122°17'9 8.8
2016-May-08 18:32N 29°49' E 122°07'7 0.7
2016-May-08 08:26N 29°46' E 122°00'0 0.2
2016-May-08 07:32N 29°46' E 122°00'4 4.0
2016-May-08 06:33N 29°48' E 122°05'9 9.4
2016-May-08 05:33N 29°48' E 122°15'10 9.4
2016-May-08 04:33N 29°42' E 122°24'2 0.4
2016-May-07 23:33N 29°41' E 122°26'6 6.0
2016-May-07 22:29N 29°46' E 122°31'56 2.6
2016-May-07 01:09N 30°36' E 122°04'711.7
2016-May-07 00:32N 30°34' E 122°12'1312.6
2016-May-06 23:31N 30°32' E 122°27'6 0.6
2016-May-06 14:12N 30°29' E 122°33'5 7.5
2016-May-06 13:29N 30°29' E 122°39'67316.4
2016-May-04 20:25N 22°17' E 114°06'18 0.9
2016-May-03 23:31N 22°29' E 113°52'0 0.0
2016-May-03 22:33N 22°29' E 113°52'0 0.0
2016-May-03 21:29N 22°29' E 113°52'0 0.0
2016-May-03 20:16N 22°29' E 113°52'0 0.0
2016-May-03 19:28N 22°29' E 113°52'0 0.0
2016-May-03 16:10N 22°29' E 113°52'0 0.0
2016-May-03 15:32N 22°29' E 113°52'15 6.2
2016-May-03 13:07N 22°20' E 114°05'3 5.1
2016-May-03 12:34N 22°20' E 114°08'0 0.0
2016-May-03 11:31N 22°20' E 114°08'0 0.0
2016-May-03 10:31N 22°20' E 114°08'0 0.0
2016-May-03 09:31N 22°20' E 114°08'0 0.0
2016-May-03 08:31N 22°20' E 114°08'0 0.0
2016-May-03 07:31N 22°20' E 114°08'0 0.0
2016-May-03 06:25N 22°20' E 114°08'0 0.0
2016-May-03 05:31N 22°20' E 114°08'0 0.0
2016-May-03 04:31N 22°20' E 114°08'0 0.0
2016-May-03 03:31N 22°20' E 114°08'0 0.0
2016-May-03 02:33N 22°20' E 114°08'7 6.9
2016-May-03 01:32N 22°13' E 114°10'10 0.2
2016-May-01 04:33N 22°09' E 114°20'  

Dump ship's entire track history